Regional Weather Roundup
Issued by NWS

Home | Current Version | Previous Version | Graphics & Text | Print | Product List | Glossary On
Versions: 1 2 3 4 5 6 7 8 9 10 11 12 13 14 15 16 17 18 19 20 21 22 23 24 25 26 27 28 29 30 31 32 33 34 35 36 37 38 39 40 41 42 43 44 45 46 47 48 49 50
352
ASUS45 KBOU 250707
RWRCO

WEATHER ROUNDUP FOR COLORADO
NATIONAL WEATHER SERVICE DENVER/BOULDER CO
100 AM MDT THU MAY 25 2017

NOTE: "FAIR" INDICATES FEW OR NO CLOUDS BELOW 12000 FEET WITH NO
SIGNIFICANT WEATHER AND/OR OBSTRUCTIONS TO VISIBILITY.

COZ001>005-013-030-031-250800-
...NORTHWEST COLORADO...

CITY           SKY/WX    TMP DP  RH WIND       PRES   REMARKS
CRAIG          MOCLDY    62  34  35 SW13      29.66R
HAYDEN         MOCLDY    57  34  41 S5        29.68R
MEEKER         CLOUDY    65  34  31 W20G33    29.72R
RABBIT EARS PA CLOUDY    45  28  53 W8G21     29.91R
STEAMBOAT SPGS CLOUDY    54  37  52 W6        29.72R
WALDEN           N/A     46  34  61 E6        29.75F
$$

COZ006>008-011-250800-
...WEST CENTRAL VALLEYS...

CITY           SKY/WX    TMP DP  RH WIND       PRES   REMARKS
GRAND JUNCTION FAIR      71  33  24 NW3       29.60R
MONTROSE       FAIR      63  27  25 E8        29.70S
EAGLE          LGT RAIN  59  38  45 VRB6      29.74S
RIFLE          MOCLDY    71  31  22 W29G45    29.65R SQUALL
DELTA          FAIR      66  31  27 CALM      29.65F
NUCLA          FAIR      70  19  14 SW13      29.75S
$$

COZ017>023-064>068-250800-
...SOUTHWEST COLORADO...

CITY           SKY/WX    TMP DP  RH WIND       PRES   REMARKS
DURANGO        FAIR      48  28  46 NE5       29.83R
CORTEZ         FAIR      73  23  15 W20G31    29.76F
PAGOSA SPRINGS FAIR      48  25  40 CALM      29.89S
TELLURIDE      MOCLDY    57  22  25 SW5       29.98F
WOLF CREEK PAS FAIR      41  19  42 SW12G21   30.17F
$$

COZ009-010-012-014-032>034-037-058>063-250800-
...CENTRAL COLORADO...

CITY           SKY/WX    TMP DP  RH WIND       PRES   REMARKS
ASPEN          FAIR      56  33  42 S10       29.79F
BUENA VISTA    FAIR      53  30  42 NE6       29.83F
COPPER MTN     LGT SNOW  41  28  60 SW20G32   30.06F
BERTHOUD PASS  FAIR      34  25  69 W30G46    30.04F WCI  20
COTTONWOOD PAS FAIR      55  21  26 CALM      29.94F
GUNNISON       FAIR      49  31  49 N5        29.83F
KREMMLING      MOCLDY    59  36  41 W7        29.76F
LEADVILLE      MOCLDY    44  29  55 NW8       29.95F
MONARCH PASS   MOCLDY    41  21  45 SW32G38   30.16F
SALIDA         FAIR      55  28  34 W8        29.88S
SUNLIGHT       MOCLDY    43  27  52 SW17G26   29.99F
WILKERSON PASS FAIR      43  27  52 SW12G22   30.05F
$$

COZ069>075-250800-
...SAN LUIS VALLEY/SANGRE DE CRISTO MOUNTAINS...

CITY           SKY/WX    TMP DP  RH WIND       PRES   REMARKS
ALAMOSA        FAIR      48  31  51 SW10      29.85F
DEL NORTE      FAIR      46  22  40 W13       29.87F
LA VETA PASS   FAIR      45  21  39 SW14      30.10F
SAGUACHE       FAIR      45  23  42 CALM      29.86S
$$

COZ035-036-038>040-250800-
...NORTHERN COLORADO FRONT RANGE...

CITY           SKY/WX    TMP DP  RH WIND       PRES   REMARKS
DENVER INTL AP FAIR      61  35  37 SW17      29.60S
DMNS CITY PARK   N/A     68  33  27 W12G18    29.60F
AURORA         PTCLDY    59  34  39 SW13      29.64R
FRONT RANGE AP FAIR      61  36  39 SW15G22   29.62S
ERIE MUNI ARPT FAIR      63  33  32 S3        29.57F
BOULDER MUN AP FAIR      70  32  24 W13       29.58F
CENTENNIAL     FAIR      64  31  28 SW9       29.65R
BROOMFIELD     FAIR      68  34  28 W12       29.62F
FORT COLLINS   FAIR      62  40  44 SW7       29.56S
LONGMONT       FAIR      72  33  24 SW17      29.57F
$$

COZ041-046-047-076>085-087-088-250800-
...PIKES PEAK/PALMER DIVIDE AND SOUTHERN FOOTHILLS...

CITY           SKY/WX    TMP DP  RH WIND       PRES   REMARKS
COLO. SPRINGS  FAIR      57  35  43 NE14      29.69F
A. F. ACADEMY  FAIR      64  27  24 N6        29.70F
SCHRIEVER AFB  FAIR      58  38  47 N9        29.69F
CHEYENNE MTN   MOCLDY    67  26  21 E5        29.67F
ELLICOTT       FAIR     N/A N/A N/A N6        29.68S
FALCON         FAIR      56  29  35 W7        29.74F
FORT CARSON    FAIR      57  40  53 SE8       29.66F
LIMON          FAIR      39  38  96 CALM      29.64F
MONUMENT HILL  FAIR      55  32  41 SW10      29.75F
CANON CITY     NOT AVBL
WALSENBURG     FAIR      57  36  44 SW15      29.70F
TRINIDAD       FAIR      60  31  33 SW13      29.70F
$$

COZ042>045-048>051-090-091-250800-
...NORTHEAST COLORADO...

CITY           SKY/WX    TMP DP  RH WIND       PRES   REMARKS
GREELEY ARPT   FAIR      56  47  71 SW10      29.55R
AKRON          FAIR      62  41  46 S15       29.54F
BURLINGTON     FAIR      56  46  69 S16       29.57F
WRAY           FAIR      63  45  51 S13G28    29.52S
YUMA           NOT AVBL
STERLING       FAIR      55  45  67 SW9       29.49F
HOLYOKE        NOT AVBL
FORT MORGAN    FAIR      60  42  51 S10       29.53F
$$

COZ086-089-092>099-250800-
...SOUTHEAST COLORADO...

CITY           SKY/WX    TMP DP  RH WIND       PRES   REMARKS
PUEBLO         FAIR      56  45  66 N8        29.59F
LA JUNTA       FAIR      60  45  57 W13       29.55F
LAMAR          FAIR      53  47  79 E9        29.54F
SPRINGFIELD      N/A     58  41  53 S12G23    29.61F
$$




USA.gov is the U.S. government's official web portal to all federal, state and local government web resources and services.